This demonstration page uses our WeatherBlox Daily Observations layout. Learn more.

Left ArrowRight Arrow

Hourly Observations for September 2, 2020

Temp ( °F °C ) Dew Point ( °F °C ) Humidity (%) Winds ( mph kmh ) Pressure ( in mb ) Visibility ( mi km ) Precip ( " mm )
12:53 am 00:53 Clear 78 25.6 46 7.8 32 32 Calm 29.73 1007 10 16 0.00 0.00
1:53 am 01:53 Mostly Cloudy 77 25 46 7.8 33 33 WNW 6 9 29.75 1008 10 16 0.00 0.00
2:53 am 02:53 Mostly Clear 77 25 47 8.3 35 35 WSW 3 6 29.75 1007 10 16 0.00 0.00
3:53 am 03:53 Mostly Clear 76 24.4 46 7.8 35 35 W 5 7 29.73 1007 10 16 0.00 0.00
4:53 am 04:53 Clear 75 23.9 45 7.2 34 34 NW 6 9 29.72 1007 10 16 0.00 0.00
5:53 am 05:53 Clear 73 22.8 45 7.2 37 37 WSW 6 9 29.73 1007 10 16 0.00 0.00
6:53 am 06:53 Clear 70 21.1 45 7.2 41 41 WNW 3 6 29.76 1008 10 16 0.00 0.00
7:53 am 07:53 Sunny 70 21.1 45 7.2 41 41 NW 10 17 29.78 1009 10 16 0.00 0.00
8:53 am 08:53 Sunny 75 23.9 47 8.3 37 37 NNE 14 22 29.83 1010 10 16 0.00 0.00
9:53 am 09:53 Sunny 79 26.1 47 8.3 32 32 NNW 14 22 29.82 1010 10 16 0.00 0.00
10:53 am 10:53 Sunny 86 30 48 8.9 27 27 NNW 10 17 29.83 1010 10 16 0.00 0.00
11:53 am 11:53 Sunny 88 31.1 50 10 27 27 N 16 26 29.85 1011 10 16 0.00 0.00
12:53 pm 12:53 Sunny 89 31.7 58 14.4 35 35 NE 8 13 29.85 1011 10 16 0.00 0.00
1:53 pm 13:53 Sunny 91 32.8 57 13.9 32 32 NNE 12 19 29.83 1010 10 16 0.00 0.00
2:53 pm 14:53 Sunny 92 33.3 55 12.8 29 29 VRB 6 9 29.80 1009 10 16 0.00 0.00
3:53 pm 15:53 Mostly Sunny 95 35 55 12.8 26 26 N 10 17 29.77 1008 10 16 0.00 0.00
4:53 pm 16:53 Mostly Sunny 95 35 53 11.7 24 24 VRB 5 7 29.75 1008 10 16 0.00 0.00
5:53 pm 17:53 Mostly Sunny 95 35 53 11.7 24 24 NNW 10 17 29.75 1008 10 16 0.00 0.00
6:53 pm 18:53 Mostly Sunny 95 35 50 10 22 22 NNE 7 11 29.75 1008 10 16 0.00 0.00
7:53 pm 19:53 Sunny 92 33.3 48 8.9 22 22 N 8 13 29.76 1008 10 16 0.00 0.00
8:53 pm 20:53 Clear 88 31.1 48 8.9 25 25 NNE 3 6 29.78 1008 10 16 0.00 0.00
9:53 pm 21:53 Clear 85 29.4 57 13.9 39 39 E 9 15 29.81 1010 10 16 0.00 0.00
10:53 pm 22:53 Clear 83 28.3 58 14.4 43 43 ESE 9 15 29.82 1010 10 16 0.00 0.00
11:53 pm 23:53 Clear 81 27.2 59 15 47 47 ESE 10 17 29.83 1010 10 16 0.00 0.00

Powered by AerisWeather